period_start,C,m1,H,J0,J1,J2,J3,J4,J5,JA,JB,JC,JD,JJ,JK,JN,#
2014-11-11 00:04:19,0.08,0.65,0.00,20.94,25.29,28.26,4.82,27.10,1022.48,2039.99,3156.09,3181.59,3393.50,350.11,352.25,12.26,0000 0000 0000 0000 000000
2014-11-11 00:09:20,0.04,0.65,0.00,20.94,25.29,28.26,4.86,27.11,1022.48,2039.99,3155.29,3181.02,3393.00,350.28,352.39,12.29,0000 0000 0000 0000 000000
2014-11-11 00:14:21,0.04,0.65,0.00,20.92,25.28,28.25,4.90,27.14,1022.48,2039.98,3154.70,3180.88,3392.36,350.31,352.33,12.32,0000 0000 0000 0000 000000
2014-11-11 00:19:22,0.04,0.65,0.00,20.93,25.27,28.24,4.84,27.02,1022.48,2039.99,3154.01,3180.13,3391.99,350.66,352.52,12.35,0000 0000 0000 0000 000000
2014-11-11 00:24:23,0.04,0.66,0.00,20.92,25.27,28.27,4.86,27.06,1022.48,2039.99,3153.19,3180.00,3391.37,350.09,352.42,12.38,0000 0000 0000 0000 000000
2014-11-11 00:29:25,0.05,0.66,0.00,20.93,25.27,28.26,4.90,27.06,1022.48,2039.99,3152.49,3179.65,3391.01,350.16,352.26,12.41,0000 0000 0000 0000 000000
2014-11-11 00:34:26,0.02,0.66,0.00,20.93,25.27,28.26,4.80,27.06,1022.49,2039.99,3151.89,3179.04,3390.89,349.83,352.01,12.44,0000 0000 0000 0000 000000
2014-11-11 00:39:27,0.05,0.66,0.00,20.92,25.27,28.27,4.87,27.15,1022.51,2039.99,3151.05,3178.85,3390.08,349.76,351.97,12.47,0000 0000 0000 0000 000000
2014-11-11 00:44:28,0.07,0.66,0.00,20.91,25.27,28.31,4.84,26.98,1022.54,2039.99,3150.27,3178.18,3389.76,350.11,352.43,12.50,0000 0000 0000 0000 000000
2014-11-11 00:49:29,0.03,0.66,0.00,20.92,25.27,28.28,4.86,27.10,1022.65,2039.99,3149.69,3178.00,3389.05,349.91,352.07,12.53,0000 0000 0000 0000 000000
2014-11-11 00:54:30,0.04,0.66,0.00,20.93,25.27,28.24,4.81,27.02,1022.76,2039.99,3148.98,3177.71,3388.83,350.05,352.18,12.55,0000 0000 0000 0000 000000
2014-11-11 00:59:31,0.06,0.67,0.00,20.90,25.27,28.27,4.87,27.09,1022.93,2039.99,3148.13,3177.04,3388.08,350.48,352.96,12.58,0000 0000 0000 0000 000000
2014-11-11 01:04:32,0.04,0.67,0.00,20.91,25.27,28.26,4.88,27.06,1022.94,2039.99,3147.36,3176.88,3387.75,350.15,352.61,12.61,0000 0000 0000 0000 000000
2014-11-11 01:09:34,0.06,0.67,0.00,20.90,25.27,28.25,4.85,27.06,1022.92,2039.99,3146.77,3176.19,3387.04,349.81,352.16,12.64,0000 0000 0000 0000 000000
2014-11-11 01:14:35,0.03,0.67,0.00,20.89,25.26,28.26,4.88,27.08,1022.90,2039.99,3146.01,3175.99,3386.72,350.45,352.67,12.67,0000 0000 0000 0000 000000
2014-11-11 01:19:37,0.06,0.67,0.00,20.91,25.25,28.25,4.84,27.09,1022.95,2039.99,3145.18,3175.59,3386.03,350.14,352.50,12.70,0000 0000 0000 0000 000000
2014-11-11 01:24:38,0.05,0.67,0.00,20.90,25.25,28.19,4.87,27.11,1022.96,2039.99,3144.52,3175.03,3385.69,350.20,352.60,12.73,0000 0000 0000 0000 000000
2014-11-11 01:29:39,0.02,0.67,0.00,20.88,25.25,28.26,4.85,27.07,1022.96,2039.99,3143.96,3174.92,3385.04,349.94,352.36,12.76,0000 0000 0000 0000 000000
2014-11-11 01:34:40,0.07,0.68,0.00,20.88,25.25,28.24,4.92,27.24,1022.96,2039.99,3143.17,3174.24,3384.77,350.31,352.67,12.79,0000 0000 0000 0000 000000
2014-11-11 01:39:41,0.04,0.68,0.00,20.87,25.25,28.23,4.83,27.18,1022.96,2039.99,3142.30,3173.99,3384.04,350.18,352.70,12.82,0000 0000 0000 0000 000000
2014-11-11 01:44:43,0.06,0.68,0.00,20.87,25.25,28.23,4.87,27.12,1022.97,2039.99,3141.75,3173.56,3383.61,350.22,352.66,12.85,0000 0000 0000 0000 000000
2014-11-11 01:49:44,0.04,0.68,0.00,20.87,25.25,28.21,4.88,27.08,1022.96,2039.99,3140.95,3173.01,3383.01,349.73,351.84,12.88,0000 0000 0000 0000 000000
2014-11-11 01:54:46,0.06,0.68,0.00,20.88,25.25,28.21,4.86,27.13,1022.96,2039.99,3140.10,3172.71,3382.46,349.76,352.16,12.91,0000 0000 0000 0000 000000
2014-11-11 01:59:47,0.05,0.68,0.00,20.89,25.25,28.21,4.87,27.14,1022.96,2039.99,3139.41,3172.03,3382.00,350.04,352.45,12.94,0000 0000 0000 0000 000000
2014-11-11 02:04:48,0.04,0.69,0.00,20.86,25.25,28.23,4.88,27.18,1022.96,2039.99,3138.74,3171.99,3381.41,350.90,353.19,12.96,0000 0000 0000 0000 000000
2014-11-11 02:09:49,0.06,0.69,0.00,20.85,25.25,28.24,4.81,27.14,1022.97,2039.99,3137.96,3171.33,3380.98,349.97,352.26,12.99,0000 0000 0000 0000 000000
2014-11-11 02:14:51,0.05,0.69,0.00,20.88,25.25,28.20,4.72,27.12,1022.98,2039.99,3137.13,3171.00,3380.35,349.93,352.36,13.02,0000 0000 0000 0000 000000
2014-11-11 02:19:52,0.05,0.69,0.00,20.89,25.25,28.18,4.93,27.11,1022.98,2039.99,3136.50,3170.64,3379.98,349.57,351.94,13.05,0000 0000 0000 0000 000000
2014-11-11 02:24:53,0.05,0.69,0.00,20.88,25.25,28.20,4.89,27.12,1023.01,2039.99,3135.83,3170.04,3379.34,350.18,352.61,13.08,0000 0000 0000 0000 000000
2014-11-11 02:29:55,0.02,0.69,0.00,20.88,25.25,28.23,4.81,27.07,1023.22,2039.99,3135.05,3169.95,3378.99,349.78,352.07,13.11,0000 0000 0000 0000 000000
2014-11-11 02:34:56,0.08,0.69,0.00,20.88,25.25,28.19,4.91,27.23,1023.33,2039.99,3134.51,3169.35,3378.49,350.18,352.64,13.14,0000 0000 0000 0000 000000
2014-11-11 02:39:57,0.03,0.70,0.00,20.88,25.25,28.18,4.83,27.19,1023.35,2039.99,3133.69,3168.99,3377.97,349.93,352.60,13.17,0000 0000 0000 0000 000000
2014-11-11 02:44:58,0.07,0.70,0.00,20.87,25.25,28.17,4.83,27.15,1023.36,2039.99,3132.98,3168.48,3377.24,349.76,352.31,13.20,0000 0000 0000 0000 000000
2014-11-11 02:50:00,0.03,0.70,0.00,20.88,25.27,28.22,4.88,27.13,1023.41,2039.99,3132.15,3168.01,3376.93,349.87,352.36,13.23,0000 0000 0000 0000 000000
2014-11-11 02:55:01,0.07,0.70,0.00,20.91,25.27,28.23,4.83,27.16,1023.44,2039.99,3131.42,3167.73,3376.19,349.53,352.15,13.26,0000 0000 0000 0000 000000
2014-11-11 03:00:03,0.04,0.70,0.00,20.90,25.27,28.25,4.88,27.15,1023.42,2039.99,3130.63,3167.05,3375.96,350.61,353.17,13.29,0000 0000 0000 0000 000000
2014-11-11 03:05:04,0.03,0.70,0.00,20.91,25.27,28.21,4.88,27.15,1023.45,2039.99,3129.99,3166.92,3375.20,349.97,352.58,13.32,0000 0000 0000 0000 000000
2014-11-11 03:10:05,0.07,0.71,0.00,20.92,25.27,28.16,4.83,27.16,1023.44,2039.99,3129.17,3166.18,3374.91,350.19,352.67,13.35,0000 0000 0000 0000 000000
2014-11-11 03:15:06,0.04,0.71,0.00,20.94,25.27,28.21,4.92,27.20,1023.42,2039.99,3128.56,3166.00,3374.10,350.30,352.54,13.37,0000 0000 0000 0000 000000
2014-11-11 03:20:07,0.07,0.71,0.00,20.96,25.27,28.21,4.85,27.16,1023.41,2039.99,3127.79,3165.32,3373.76,350.14,352.57,13.40,0000 0000 0000 0000 000000
2014-11-11 03:25:08,0.04,0.71,0.00,20.97,25.27,28.19,4.77,27.18,1023.44,2039.99,3127.02,3165.02,3373.08,349.83,352.09,13.43,0000 0000 0000 0000 000000
2014-11-11 03:30:09,0.05,0.71,0.00,20.97,25.27,28.21,4.81,27.02,1023.45,2039.99,3126.21,3164.85,3372.78,349.84,352.30,13.46,0000 0000 0000 0000 000000
2014-11-11 03:35:11,0.08,0.71,0.00,20.98,25.27,28.21,4.88,27.21,1023.45,2039.99,3125.50,3164.08,3372.04,350.36,352.80,13.49,0000 0000 0000 0000 000000
2014-11-11 03:40:12,0.06,0.72,0.00,20.98,25.27,28.23,4.90,27.25,1023.45,2039.99,3124.70,3163.70,3371.30,350.72,353.06,13.52,0000 0000 0000 0000 000000
2014-11-11 03:45:13,0.02,0.72,0.00,20.91,25.27,28.25,4.84,27.10,1023.45,2039.99,3124.03,3163.14,3370.99,350.28,352.73,13.55,0000 0000 0000 0000 000000
2014-11-11 03:50:14,0.05,0.72,0.00,20.85,25.27,28.28,4.94,27.24,1023.46,2039.99,3123.21,3162.99,3370.38,350.34,352.90,13.58,0000 0000 0000 0000 000000
2014-11-11 03:55:15,0.06,0.72,0.00,20.84,25.27,28.29,4.98,27.20,1023.46,2039.99,3122.57,3162.47,3369.98,350.96,353.22,13.61,0000 0000 0000 0000 000000
2014-11-11 04:00:16,0.04,0.72,0.00,20.90,25.28,28.32,4.83,27.22,1023.47,2039.99,3121.76,3162.01,3369.29,349.99,352.58,13.64,0000 0000 0000 0000 000000
2014-11-11 04:05:18,0.04,0.72,0.00,20.90,25.29,28.34,4.90,27.14,1023.48,2039.99,3120.98,3161.69,3368.97,350.45,352.94,13.67,0000 0000 0000 0000 000000
2014-11-11 04:10:19,0.07,0.73,0.00,20.90,25.29,28.32,4.84,27.08,1023.47,2039.99,3120.14,3161.04,3368.33,349.58,352.20,13.70,0000 0000 0000 0000 000000
2014-11-11 04:15:20,0.04,0.73,0.00,20.90,25.29,28.29,4.87,27.18,1023.45,2039.99,3119.55,3160.83,3367.81,350.37,352.83,13.73,0000 0000 0000 0000 000000
2014-11-11 04:20:22,0.07,0.73,0.00,20.91,25.28,28.28,4.87,27.27,1023.46,2039.99,3118.79,3160.11,3367.05,350.54,352.93,13.76,0000 0000 0000 0000 000000
2014-11-11 04:25:23,0.02,0.73,0.00,20.91,25.28,28.31,4.88,27.13,1023.46,2039.99,3118.02,3159.99,3366.95,350.00,352.37,13.78,0000 0000 0000 0000 000000
2014-11-11 04:30:25,0.08,0.73,0.00,20.91,25.27,28.33,4.88,27.18,1023.48,2039.99,3117.25,3159.60,3366.24,350.43,352.94,13.81,0000 0000 0000 0000 000000
2014-11-11 04:35:26,0.05,0.73,0.00,20.93,25.27,28.31,4.85,27.27,1023.66,2039.99,3116.35,3159.01,3365.85,350.03,352.39,13.84,0000 0000 0000 0000 000000
2014-11-11 04:40:27,0.05,0.74,0.00,20.92,25.27,28.29,4.79,27.14,1023.75,2039.98,3115.77,3158.64,3365.07,350.10,352.57,13.87,0000 0000 0000 0000 000000
2014-11-11 04:45:28,0.05,0.74,0.00,20.95,25.27,28.31,4.92,27.18,1023.62,2039.99,3115.05,3158.07,3364.78,349.87,352.37,13.90,0000 0000 0000 0000 000000
2014-11-11 04:50:30,0.04,0.74,0.00,20.94,25.27,28.24,4.86,27.12,1023.60,2039.99,3114.26,3157.99,3364.07,349.68,352.16,13.93,0000 0000 0000 0000 000000
2014-11-11 04:55:31,0.06,0.74,0.00,20.93,25.27,28.26,4.93,27.25,1023.68,2039.99,3113.65,3157.46,3363.82,349.88,352.44,13.96,0000 0000 0000 0000 000000
2014-11-11 05:00:32,0.03,0.74,0.00,20.92,25.27,28.25,4.89,27.15,1023.63,2039.99,3112.98,3157.02,3363.06,349.95,352.73,13.99,0000 0000 0000 0000 000000
2014-11-11 05:05:33,0.04,0.74,0.00,20.94,25.27,28.26,4.87,27.15,1023.55,2039.99,3112.13,3156.86,3362.80,350.13,352.70,14.02,0000 0000 0000 0000 000000
2014-11-11 05:10:34,0.08,0.75,0.00,20.94,25.27,28.26,4.93,27.21,1023.63,2039.99,3111.40,3156.09,3362.06,350.55,353.15,14.05,0000 0000 0000 0000 000000
2014-11-11 05:15:35,0.04,0.75,0.00,20.95,25.26,28.24,4.89,27.23,1023.81,2039.99,3110.68,3155.97,3361.60,350.69,353.44,14.08,0000 0000 0000 0000 000000
2014-11-11 05:20:36,0.05,0.75,0.00,20.94,25.25,28.24,4.73,27.15,1023.77,2039.99,3109.94,3155.30,3361.04,349.73,352.33,14.11,0000 0000 0000 0000 000000
2014-11-11 05:25:37,0.04,0.75,0.00,20.96,25.25,28.25,4.89,27.18,1023.86,2039.99,3109.07,3155.00,3360.78,349.83,352.42,14.14,0000 0000 0000 0000 000000
2014-11-11 05:30:39,0.08,0.75,0.00,20.95,25.25,28.23,4.86,27.24,1023.93,2039.99,3108.32,3154.48,3360.05,350.10,352.82,14.17,0000 0000 0000 0000 000000
2014-11-11 05:35:40,0.06,0.75,0.00,20.93,25.25,28.20,4.81,27.18,1023.93,2039.99,3107.50,3154.00,3359.41,349.91,352.62,14.19,0000 0000 0000 0000 000000
2014-11-11 05:40:41,0.05,0.75,0.00,20.95,25.25,28.20,4.82,27.27,1023.90,2039.99,3106.81,3153.56,3358.96,349.67,352.46,14.22,0000 0000 0000 0000 000000
2014-11-11 05:45:42,0.05,0.76,0.00,20.96,25.25,28.19,4.87,27.14,1023.92,2039.99,3106.03,3153.03,3358.21,349.71,352.28,14.25,0000 0000 0000 0000 000000
2014-11-11 05:50:44,0.04,0.76,0.00,20.97,25.25,28.20,4.88,27.21,1023.92,2039.99,3105.25,3152.83,3357.85,350.43,352.93,14.28,0000 0000 0000 0000 000000
2014-11-11 05:55:45,0.07,0.76,0.00,20.96,25.25,28.19,4.95,27.26,1023.94,2039.99,3104.40,3152.10,3357.08,350.21,352.58,14.31,0000 0000 0000 0000 000000
2014-11-11 06:00:47,0.03,0.76,0.00,20.95,25.25,28.19,4.91,27.18,1023.94,2039.99,3103.65,3151.96,3356.76,350.66,353.44,14.34,0000 0000 0000 0000 000000
2014-11-11 06:05:48,0.06,0.76,0.00,20.95,25.25,28.17,4.87,27.19,1023.93,2039.99,3102.91,3151.34,3356.09,350.16,352.81,14.37,0000 0000 0000 0000 000000
2014-11-11 06:10:50,0.04,0.77,0.00,20.91,25.25,28.21,4.88,27.20,1023.94,2039.99,3102.06,3151.00,3355.79,350.17,352.80,14.40,0000 0000 0000 0000 000000
2014-11-11 06:15:51,0.08,0.77,0.00,20.89,25.25,28.23,4.96,27.22,1023.95,2039.99,3101.27,3150.53,3355.07,350.14,352.63,14.43,0000 0000 0000 0000 000000
2014-11-11 06:20:52,0.04,0.77,0.00,20.89,25.25,28.26,4.87,27.16,1023.96,2039.99,3100.58,3150.02,3354.71,350.22,352.93,14.46,0000 0000 0000 0000 000000
2014-11-11 06:25:53,0.04,0.77,0.00,20.90,25.25,28.25,4.88,27.14,1023.95,2039.99,3099.90,3149.71,3354.02,350.55,353.17,14.49,0000 0000 0000 0000 000000
2014-11-11 06:30:54,0.07,0.77,0.00,20.90,25.25,28.25,4.83,27.21,1023.97,2039.99,3099.01,3149.06,3353.27,349.73,352.51,14.52,0000 0000 0000 0000 000000
2014-11-11 06:35:55,0.04,0.77,0.00,20.89,25.25,28.24,4.97,27.25,1024.13,2039.99,3098.09,3148.86,3352.91,350.27,353.21,14.55,0000 0000 0000 0000 000000
2014-11-11 06:40:57,0.08,0.78,0.00,20.89,25.25,28.25,4.80,27.17,1024.13,2039.99,3097.23,3148.06,3352.11,350.09,352.64,14.58,0000 0000 0000 0000 000000
2014-11-11 06:45:58,0.03,0.78,0.00,20.89,25.24,28.29,4.87,27.32,1024.21,2039.99,3096.51,3147.95,3351.88,350.02,352.82,14.60,0000 0000 0000 0000 000000
2014-11-11 06:50:59,0.07,0.78,0.00,20.90,25.24,28.27,4.94,27.09,1024.24,2039.99,3095.83,3147.27,3351.12,350.47,353.17,14.63,0000 0000 0000 0000 000000
2014-11-11 06:56:00,0.03,0.78,0.00,20.90,25.23,28.26,4.85,27.23,1024.06,2039.99,3095.03,3147.00,3350.82,349.71,352.43,14.66,0000 0000 0000 0000 000000
2014-11-11 07:01:02,0.07,0.78,0.00,20.89,25.23,28.26,4.84,27.27,1024.09,2039.99,3094.39,3146.49,3350.05,350.24,352.89,14.69,0000 0000 0000 0000 000000
2014-11-11 07:06:03,0.05,0.78,0.00,20.90,25.22,28.22,4.93,27.22,1024.34,2039.99,3093.66,3146.01,3349.54,350.36,353.29,14.72,0000 0000 0000 0000 000000
2014-11-11 07:11:04,0.07,0.79,0.00,20.91,25.22,28.20,4.91,27.35,1024.43,2039.99,3092.62,3145.49,3349.00,350.62,353.80,14.75,0000 0000 0000 0000 000000
2014-11-11 07:16:05,0.04,0.79,0.00,20.92,25.22,28.18,4.88,27.29,1024.43,2039.99,3091.86,3145.02,3348.61,350.24,353.19,14.78,0000 0000 0000 0000 000000
2014-11-11 07:21:06,0.03,0.79,0.00,20.91,25.22,28.18,4.90,27.18,1024.43,2039.99,3091.05,3144.91,3348.03,349.79,352.57,14.81,0000 0000 0000 0000 000000
2014-11-11 07:26:07,0.08,0.79,0.00,20.93,25.22,28.16,4.82,27.18,1024.43,2039.99,3090.39,3144.14,3347.51,349.85,352.73,14.84,0000 0000 0000 0000 000000
2014-11-11 07:31:08,0.02,0.79,0.00,20.93,25.22,28.20,4.81,27.07,1024.43,2039.99,3089.69,3143.98,3347.00,349.80,352.68,14.87,0000 0000 0000 0000 000000
2014-11-11 07:36:10,0.06,0.79,0.00,20.91,25.22,28.16,4.91,27.21,1024.43,2039.99,3088.96,3143.47,3346.48,349.99,352.89,14.90,0000 0000 0000 0000 000000
2014-11-11 07:41:11,0.04,0.80,0.00,20.92,25.22,28.17,4.97,27.16,1024.43,2039.99,3088.08,3143.01,3345.99,350.25,353.07,14.93,0000 0000 0000 0000 000000
2014-11-11 07:46:12,0.07,0.80,0.00,20.91,25.22,28.19,4.87,27.07,1024.43,2040.00,3087.34,3142.74,3345.42,350.09,352.93,14.96,0000 0000 0000 0000 000000
2014-11-11 07:51:14,0.05,0.80,0.00,20.91,25.22,28.19,4.89,27.09,1024.43,2040.00,3086.66,3142.05,3344.97,349.80,352.51,14.99,0000 0000 0000 0000 000000
2014-11-11 07:56:15,0.05,0.80,0.00,20.92,25.22,28.19,4.84,27.10,1024.43,2040.00,3085.88,3141.82,3344.19,349.94,352.88,15.01,0000 0000 0000 0000 000000
2014-11-11 08:01:17,0.06,0.80,0.00,20.92,25.22,28.17,4.99,27.20,1024.44,2040.00,3085.06,3141.06,3343.83,350.76,353.48,15.04,0000 0000 0000 0000 000000
2014-11-11 08:06:18,0.05,0.80,0.00,20.92,25.22,28.17,4.87,27.14,1024.45,2040.00,3084.53,3140.85,3343.03,349.76,352.72,15.07,0000 0000 0000 0000 000000
2014-11-11 08:11:19,0.07,0.81,0.00,20.91,25.22,28.16,4.81,27.23,1024.44,2039.99,3083.73,3140.10,3342.42,349.57,352.36,15.10,0000 0000 0000 0000 000000
2014-11-11 08:16:21,0.03,0.81,0.00,20.92,25.22,28.20,4.83,27.23,1024.45,2039.99,3082.84,3139.89,3341.96,350.32,353.18,15.13,0000 0000 0000 0000 000000
2014-11-11 08:21:22,0.08,0.81,0.00,20.90,25.22,28.16,4.85,27.20,1024.44,2039.99,3082.03,3139.09,3341.19,349.92,352.97,15.16,0000 0000 0000 0000 000000
2014-11-11 08:26:23,0.03,0.81,0.00,20.92,25.22,28.15,4.85,27.23,1024.45,2039.99,3081.19,3138.98,3340.99,349.94,352.80,15.19,0000 0000 0000 0000 000000
2014-11-11 08:31:24,0.07,0.81,0.00,20.92,25.22,28.17,4.77,27.07,1024.58,2039.99,3080.64,3138.55,3340.37,349.90,352.68,15.22,0000 0000 0000 0000 000000
2014-11-11 08:36:25,0.04,0.81,0.00,20.94,25.22,28.17,4.86,27.16,1024.79,2039.99,3079.67,3138.02,3339.92,349.97,352.90,15.25,0000 0000 0000 0000 000000
2014-11-11 08:41:27,0.08,0.82,0.00,20.93,25.22,28.18,4.87,27.13,1024.90,2039.99,3078.79,3137.52,3339.14,349.78,352.55,15.28,0000 0000 0000 0000 000000
2014-11-11 08:46:28,0.03,0.82,0.00,20.94,25.22,28.18,4.82,27.12,1024.92,2039.99,3077.99,3137.02,3338.92,349.79,352.74,15.31,0000 0000 0000 0000 000000
2014-11-11 08:51:29,0.05,0.82,0.00,20.92,25.22,28.16,4.93,27.23,1024.92,2039.99,3077.16,3136.90,3338.18,350.34,353.31,15.34,0000 0000 0000 0000 000000
2014-11-11 08:56:31,0.06,0.82,0.00,20.92,25.22,28.17,4.80,27.12,1024.92,2039.99,3076.67,3136.13,3337.87,349.56,352.82,15.37,0000 0000 0000 0000 000000
2014-11-11 09:01:32,0.04,0.82,0.00,20.92,25.22,28.18,4.97,27.06,1024.92,2039.99,3075.94,3135.98,3337.08,350.45,353.46,15.40,0000 0000 0000 0000 000000
2014-11-11 09:06:33,0.07,0.82,0.00,20.93,25.22,28.19,4.90,27.06,1024.93,2039.99,3075.10,3135.34,3336.85,350.11,353.03,15.42,0000 0000 0000 0000 000000
2014-11-11 09:11:34,0.04,0.83,0.00,20.93,25.22,28.17,4.88,27.08,1024.92,2039.99,3074.49,3135.01,3336.09,349.64,352.68,15.45,0000 0000 0000 0000 000000
2014-11-11 09:16:36,0.06,0.83,0.00,20.94,25.22,28.19,4.88,27.10,1024.95,2039.99,3073.50,3134.78,3335.55,350.25,353.16,15.48,0000 0000 0000 0000 000000
2014-11-11 09:21:37,0.04,0.83,0.00,20.95,25.22,28.17,4.95,27.11,1024.96,2039.99,3072.84,3134.08,3335.00,350.20,353.15,15.51,0000 0000 0000 0000 000000
2014-11-11 09:26:38,0.04,0.83,0.00,20.92,25.22,28.19,4.92,27.00,1024.99,2039.99,3072.03,3133.97,3334.45,350.27,353.14,15.54,0000 0000 0000 0000 000000
2014-11-11 09:31:40,0.07,0.83,0.00,20.93,25.22,28.20,4.83,27.21,1025.00,2039.99,3071.42,3133.22,3333.93,349.83,352.97,15.57,0000 0000 0000 0000 000000
2014-11-11 09:36:41,0.04,0.83,0.00,20.91,25.22,28.15,4.91,27.11,1025.13,2039.99,3070.71,3132.98,3333.13,349.97,353.09,15.60,0000 0000 0000 0000 000000
2014-11-11 09:41:42,0.06,0.84,0.00,20.92,25.22,28.18,4.93,27.13,1025.28,2039.99,3070.02,3132.33,3332.86,350.12,353.17,15.63,0000 0000 0000 0000 000000
2014-11-11 09:46:44,0.05,0.84,0.00,20.92,25.22,28.21,4.87,27.00,1025.24,2039.99,3069.28,3132.00,3332.09,350.12,353.07,15.66,0000 0000 0000 0000 000000
2014-11-11 09:51:45,0.05,0.84,0.00,20.92,25.22,28.21,4.87,26.93,1025.28,2039.99,3068.62,3131.69,3331.83,350.01,353.03,15.69,0000 0000 0000 0000 000000
2014-11-11 09:56:46,0.05,0.84,0.00,20.92,25.21,28.19,4.79,26.95,1025.36,2039.99,3067.82,3131.04,3331.07,350.00,353.62,15.72,0000 0000 0000 0000 000000
2014-11-11 10:01:47,0.02,0.84,0.00,20.92,25.21,28.14,4.78,26.98,1025.34,2039.99,3067.03,3130.96,3330.88,350.08,353.19,15.75,0000 0000 0000 0000 000000
2014-11-11 10:06:48,0.08,0.84,0.00,20.92,25.21,28.16,4.80,26.85,1025.28,2039.99,3066.47,3130.23,3330.12,349.68,352.79,15.78,0000 0000 0000 0000 000000
2014-11-11 10:11:49,0.05,0.85,0.00,20.91,25.21,28.20,4.95,27.09,1025.18,2039.99,3065.55,3129.99,3329.61,350.45,353.27,15.81,0000 0000 0000 0000 000000
2014-11-11 10:16:50,0.05,0.85,0.00,20.89,25.20,28.19,4.94,27.06,1025.10,2039.99,3064.92,3129.46,3329.01,350.54,353.59,15.83,0000 0000 0000 0000 000000
2014-11-11 10:21:51,0.04,0.85,0.00,20.89,25.20,28.19,4.82,26.99,1025.10,2039.99,3064.08,3129.01,3328.70,349.72,352.87,15.86,0000 0000 0000 0000 000000
2014-11-11 10:26:53,0.05,0.85,0.00,20.89,25.20,28.19,4.95,27.09,1024.98,2039.99,3063.37,3128.77,3328.03,349.92,352.97,15.89,0000 0000 0000 0000 000000
2014-11-11 10:31:54,0.06,0.85,0.00,20.91,25.20,28.13,4.90,27.05,1024.96,2039.99,3062.68,3128.06,3327.70,350.27,353.25,15.92,0000 0000 0000 0000 000000
2014-11-11 10:36:55,0.03,0.85,0.00,20.90,25.20,28.15,4.97,27.11,1024.95,2039.99,3061.87,3127.92,3327.04,350.60,353.27,15.95,0000 0000 0000 0000 000000
2014-11-11 10:41:56,0.07,0.86,0.00,20.89,25.20,28.19,4.82,27.08,1024.95,2039.99,3061.05,3127.15,3326.79,349.53,352.81,15.98,0000 0000 0000 0000 000000
2014-11-11 10:46:57,0.04,0.86,0.00,20.89,25.20,28.12,4.92,27.02,1025.04,2039.99,3060.26,3126.96,3326.07,350.50,353.59,16.01,0000 0000 0000 0000 000000
2014-11-11 10:51:59,0.06,0.86,0.00,20.90,25.20,28.14,4.81,27.02,1025.17,2039.99,3059.65,3126.40,3325.70,349.91,353.01,16.04,0000 0000 0000 0000 000000
2014-11-11 10:57:00,0.04,0.86,0.00,20.90,25.20,28.17,4.85,27.07,1025.22,2039.99,3058.86,3126.01,3325.05,350.08,353.35,16.07,0000 0000 0000 0000 000000
2014-11-11 11:02:01,0.07,0.86,0.00,20.89,25.20,28.18,4.80,27.04,1025.10,2039.99,3058.03,3125.64,3324.63,349.78,352.98,16.10,0000 0000 0000 0000 000000
2014-11-11 11:07:02,0.05,0.87,0.00,20.87,25.20,28.17,4.85,27.04,1025.09,2039.99,3057.17,3125.02,3324.01,349.82,352.80,16.13,0000 0000 0000 0000 000000
2014-11-11 11:12:04,0.04,0.87,0.00,20.87,25.20,28.16,4.91,27.17,1025.09,2039.99,3056.68,3124.93,3323.56,349.72,352.86,16.16,0000 0000 0000 0000 000000
2014-11-11 11:17:05,0.06,0.87,0.00,20.87,25.20,28.22,4.92,27.13,1025.00,2039.99,3055.92,3124.19,3323.01,350.39,353.58,16.19,0000 0000 0000 0000 000000
2014-11-11 11:22:06,0.05,0.87,0.00,20.86,25.20,28.18,4.92,27.07,1024.97,2039.99,3055.07,3123.99,3322.34,350.44,353.61,16.21,0000 0000 0000 0000 000000
2014-11-11 11:27:07,0.07,0.87,0.00,20.87,25.19,28.17,4.92,27.09,1024.94,2039.99,3054.31,3123.41,3321.99,350.31,353.50,16.24,0000 0000 0000 0000 000000
2014-11-11 11:32:08,0.05,0.87,0.00,20.85,25.19,28.17,4.94,27.09,1024.94,2040.00,3053.49,3123.01,3321.43,350.60,353.67,16.27,0000 0000 0000 0000 000000
2014-11-11 11:37:10,0.06,0.87,0.00,20.85,25.18,28.17,4.87,27.01,1024.94,2040.00,3052.75,3122.57,3320.87,350.07,353.25,16.30,0000 0000 0000 0000 000000
2014-11-11 11:42:11,0.05,0.88,0.00,20.84,25.17,28.18,4.83,27.09,1024.93,2040.00,3052.01,3122.02,3320.06,350.04,353.22,16.33,0000 0000 0000 0000 000000
2014-11-11 11:47:12,0.03,0.88,0.00,20.86,25.17,28.19,4.88,26.94,1024.95,2040.00,3051.35,3121.88,3319.92,350.16,353.15,16.36,0000 0000 0000 0000 000000
2014-11-11 11:52:14,0.08,0.88,0.00,20.85,25.17,28.18,4.87,26.95,1024.93,2040.00,3050.62,3121.09,3319.12,350.08,353.21,16.39,0000 0000 0000 0000 000000
2014-11-11 11:57:15,0.78,0.89,0.00,20.86,25.17,28.19,4.81,27.02,1024.93,2040.00,3044.72,3117.50,3315.28,349.61,352.90,16.42,0000 0000 0000 0000 000000
2014-11-11 12:02:16,3.09,0.96,0.00,20.85,25.17,28.17,4.76,26.98,1024.94,2040.00,3009.89,3094.22,3291.13,349.17,352.17,16.45,0000 0000 0000 0000 000000
2014-11-11 12:07:18,2.43,1.05,0.00,20.84,25.17,28.17,4.89,27.02,1024.92,2040.00,2975.48,3070.14,3266.17,350.06,353.31,16.48,0000 0000 0000 0000 000000
2014-11-11 12:12:19,2.22,1.11,0.00,20.84,25.17,28.16,4.90,27.13,1024.93,2040.00,2951.89,3055.72,3251.25,349.65,352.75,16.51,0000 0000 0000 0000 000000
2014-11-11 12:17:20,0.70,1.14,0.00,20.84,25.17,28.15,4.89,27.07,1024.92,2040.00,2938.37,3047.31,3242.57,350.33,353.43,16.54,0000 0000 0000 0000 000000
2014-11-11 12:22:22,0.31,1.15,0.00,20.83,25.17,28.18,4.91,27.13,1024.92,2040.00,2934.41,3044.90,3239.93,349.98,353.09,16.57,0000 0000 0000 0000 000000
2014-11-11 12:27:23,0.32,1.17,0.47,20.83,25.17,28.16,5.02,27.18,1024.92,2039.99,2929.67,3041.91,3236.72,350.40,353.33,16.60,0000 0000 0000 0000 000000
2014-11-11 12:32:24,0.06,1.17,2.00,20.85,25.17,28.16,4.88,27.10,1024.92,2039.99,2928.26,3041.03,3235.97,349.80,353.14,16.63,0000 0000 0000 0000 000000
2014-11-11 12:37:25,0.06,1.17,2.00,20.83,25.17,28.16,4.86,27.23,1024.93,2039.99,2927.59,3040.81,3235.21,349.97,353.16,16.65,0000 0000 0000 0000 000000
2014-11-11 12:42:27,0.05,1.18,2.00,20.83,25.16,28.15,4.92,27.17,1024.97,2039.99,2926.77,3040.06,3234.97,350.08,353.22,16.68,0000 0000 0000 0000 000000
2014-11-11 12:47:28,0.04,1.18,2.00,20.85,25.15,28.20,4.85,27.10,1024.98,2039.99,2926.01,3040.00,3234.34,350.29,353.41,16.71,0000 0000 0000 0000 000000
2014-11-11 12:52:29,0.06,1.18,2.00,20.85,25.15,28.14,4.87,27.13,1025.11,2039.99,2925.19,3039.59,3233.93,349.95,353.28,16.74,0000 0000 0000 0000 000000
2014-11-11 12:57:30,0.06,1.18,1.47,20.83,25.15,28.14,4.85,27.18,1024.96,2039.99,2924.62,3039.03,3233.18,350.12,353.49,16.77,0000 0000 0000 0000 000000
2014-11-11 13:02:31,0.04,1.18,0.00,20.83,25.15,28.12,4.89,27.18,1025.12,2039.99,2923.82,3038.66,3232.90,350.71,353.94,16.80,0000 0000 0000 0000 000000